Hourly Weather Luhova

Today, 7 May, Friday

Time Temperature Precipitation Wind Pressure Humidity
00:00 +10°C° 0 mm 1 mps 744 mmHg 66%
01:00 +9°C° 0 mm 1 mps 744 mmHg 67%
02:00 +9°C° 0 mm 1 mps 744 mmHg 68%
03:00 +9°C° 0 mm 1 mps 744 mmHg 70%
04:00 +9°C° 0 mm 1 mps 744 mmHg 72%
05:00 +7°C° 0 mm 2 mps 744 mmHg 74%
06:00 +9°C° 0 mm 3 mps 744 mmHg 71%
07:00 +11°C° 0 mm 3 mps 744 mmHg 67%
08:00 +13°C° 0 mm 4 mps 744 mmHg 63%
09:00 +14°C° 0 mm 5 mps 744 mmHg 63%
10:00 +15°C° 0 mm 6 mps 743 mmHg 62%
11:00 +16°C° 0 mm 8 mps 743 mmHg 61%
12:00 +16°C° 0.4 mm 7 mps 742 mmHg 63%
13:00 +17°C° 0.4 mm 7 mps 742 mmHg 66%
14:00 +17°C° 0.4 mm 7 mps 742 mmHg 68%
15:00 +16°C° 1 mm 7 mps 741 mmHg 72%
16:00 +16°C° 1 mm 7 mps 740 mmHg 76%
17:00 +16°C° 1 mm 7 mps 740 mmHg 79%
18:00 +15°C° 0.6 mm 6 mps 740 mmHg 82%
19:00 +14°C° 0.6 mm 6 mps 740 mmHg 85%
20:00 +13°C° 0.6 mm 5 mps 740 mmHg 88%
21:00 +13°C° 0.2 mm 5 mps 739 mmHg 90%
22:00 +12°C° 0.2 mm 4 mps 739 mmHg 92%
23:00 +12°C° 0.2 mm 3 mps 739 mmHg 95%

Tomorrow, 8 May, Saturday

Time Temperature Precipitation Wind Pressure Humidity
00:00 +12°C° 0.3 mm 4 mps 739 mmHg 95%
01:00 +12°C° 0.3 mm 4 mps 739 mmHg 95%
02:00 +12°C° 0.3 mm 5 mps 738 mmHg 95%
03:00 +10°C° 0.6 mm 5 mps 739 mmHg 93%
04:00 +10°C° 0.6 mm 5 mps 740 mmHg 92%
05:00 +9°C° 0.6 mm 5 mps 740 mmHg 90%
06:00 +9°C° 0 mm 6 mps 741 mmHg 87%
07:00 +8°C° 0 mm 7 mps 742 mmHg 83%
08:00 +8°C° 0 mm 7 mps 743 mmHg 79%
09:00 +9°C° 0 mm 7 mps 743 mmHg 71%
10:00 +10°C° 0 mm 8 mps 744 mmHg 62%
11:00 +11°C° 0 mm 8 mps 744 mmHg 54%
12:00 +11°C° 0 mm 8 mps 745 mmHg 51%
13:00 +11°C° 0 mm 9 mps 745 mmHg 48%
14:00 +12°C° 0 mm 9 mps 745 mmHg 45%
15:00 +11°C° 0 mm 9 mps 745 mmHg 49%
16:00 +10°C° 0 mm 8 mps 746 mmHg 54%
17:00 +10°C° 0 mm 8 mps 746 mmHg 59%
18:00 +9°C° 0 mm 6 mps 747 mmHg 63%
19:00 +7°C° 0 mm 5 mps 747 mmHg 67%
20:00 +7°C° 0 mm 3 mps 748 mmHg 71%
21:00 +5°C° 0 mm 3 mps 749 mmHg 74%
22:00 +4°C° 0 mm 3 mps 749 mmHg 76%
23:00 +4°C° 0 mm 3 mps 749 mmHg 79%

Day after tomorrow, 9 May, Sunday

Time Temperature Precipitation Wind Pressure Humidity
00:00 +3°C° 0 mm 3 mps 750 mmHg 80%
01:00 +3°C° 0 mm 4 mps 750 mmHg 81%
02:00 +1°C° 0 mm 4 mps 750 mmHg 82%
03:00 +1°C° 0 mm 4 mps 751 mmHg 83%
04:00 +2°C° 0 mm 3 mps 751 mmHg 85%
05:00 +1°C° 0 mm 3 mps 752 mmHg 86%
06:00 +4°C° 0 mm 3 mps 752 mmHg 78%
07:00 +7°C° 0 mm 3 mps 752 mmHg 69%
08:00 +9°C° 0 mm 3 mps 753 mmHg 61%
09:00 +10°C° 0 mm 3 mps 753 mmHg 57%
10:00 +11°C° 0 mm 3 mps 753 mmHg 52%
11:00 +12°C° 0 mm 4 mps 753 mmHg 48%
12:00 +13°C° 0 mm 3 mps 753 mmHg 46%
13:00 +14°C° 0 mm 3 mps 753 mmHg 43%
14:00 +14°C° 0 mm 3 mps 753 mmHg 41%
15:00 +14°C° 0 mm 3 mps 753 mmHg 41%
16:00 +14°C° 0 mm 3 mps 753 mmHg 41%
17:00 +15°C° 0 mm 2 mps 753 mmHg 41%
18:00 +14°C° 0 mm 2 mps 753 mmHg 46%
19:00 +12°C° 0 mm 1 mps 754 mmHg 51%
20:00 +11°C° 0 mm 1 mps 754 mmHg 56%
21:00 +10°C° 0 mm 1 mps 754 mmHg 58%
22:00 +9°C° 0 mm 1 mps 754 mmHg 60%
23:00 +9°C° 0 mm 1 mps 754 mmHg 62%

10 May, Monday

Time Temperature Precipitation Wind Pressure Humidity
00:00 +8°C° 0 mm 1 mps 754 mmHg 64%
01:00 +8°C° 0 mm 1 mps 754 mmHg 66%
02:00 +8°C° 0 mm 1 mps 755 mmHg 68%
03:00 +7°C° 0 mm 1 mps 755 mmHg 69%
04:00 +6°C° 0 mm 2 mps 755 mmHg 70%
05:00 +6°C° 0 mm 2 mps 755 mmHg 72%
06:00 +8°C° 0 mm 2 mps 755 mmHg 67%
07:00 +10°C° 0 mm 2 mps 755 mmHg 63%
08:00 +12°C° 0 mm 3 mps 755 mmHg 59%
09:00 +13°C° 0 mm 3 mps 755 mmHg 54%
10:00 +15°C° 0 mm 2 mps 755 mmHg 50%
11:00 +16°C° 0 mm 2 mps 755 mmHg 45%
12:00 +17°C° 0 mm 2 mps 755 mmHg 44%
13:00 +17°C° 0 mm 2 mps 754 mmHg 42%
14:00 +18°C° 0 mm 2 mps 754 mmHg 40%
15:00 +18°C° 0 mm 2 mps 754 mmHg 42%
16:00 +18°C° 0 mm 2 mps 754 mmHg 43%
17:00 +18°C° 0 mm 2 mps 753 mmHg 44%
18:00 +16°C° 0 mm 3 mps 754 mmHg 51%
19:00 +13°C° 0 mm 3 mps 754 mmHg 58%
20:00 +11°C° 0 mm 3 mps 754 mmHg 65%
21:00 +10°C° 0 mm 3 mps 754 mmHg 67%
22:00 +9°C° 0 mm 3 mps 754 mmHg 68%
23:00 +9°C° 0 mm 2 mps 754 mmHg 69%

11 May, Tuesday

Time Temperature Precipitation Wind Pressure Humidity
00:00 +8°C° 0 mm 2 mps 754 mmHg 71%
01:00 +8°C° 0 mm 2 mps 754 mmHg 72%
02:00 +7°C° 0 mm 2 mps 754 mmHg 73%
03:00 +7°C° 0 mm 2 mps 753 mmHg 75%
04:00 +7°C° 0 mm 2 mps 753 mmHg 77%
05:00 +6°C° 0 mm 2 mps 753 mmHg 79%
06:00 +8°C° 0 mm 3 mps 753 mmHg 73%
07:00 +10°C° 0 mm 3 mps 753 mmHg 67%
08:00 +12°C° 0 mm 4 mps 753 mmHg 61%
09:00 +14°C° 0 mm 3 mps 753 mmHg 56%
10:00 +16°C° 0 mm 3 mps 752 mmHg 52%
11:00 +17°C° 0 mm 3 mps 752 mmHg 48%
12:00 +18°C° 0 mm 3 mps 752 mmHg 48%
13:00 +19°C° 0 mm 3 mps 751 mmHg 48%
14:00 +20°C° 0 mm 3 mps 751 mmHg 48%
15:00 +20°C° 0 mm 3 mps 751 mmHg 49%
16:00 +20°C° 0 mm 3 mps 750 mmHg 51%
17:00 +20°C° 0 mm 3 mps 750 mmHg 52%
18:00 +18°C° 0 mm 3 mps 750 mmHg 60%
19:00 +16°C° 0 mm 3 mps 750 mmHg 67%
20:00 +13°C° 0 mm 3 mps 750 mmHg 75%
21:00 +13°C° 0 mm 3 mps 750 mmHg 78%
22:00 +12°C° 0 mm 3 mps 750 mmHg 80%
23:00 +12°C° 0 mm 2 mps 749 mmHg 83%

12 May, Wednesday

Time Temperature Precipitation Wind Pressure Humidity
00:00 +12°C° 0 mm 2 mps 749 mmHg 85%
01:00 +12°C° 0 mm 2 mps 749 mmHg 88%
02:00 +10°C° 0 mm 2 mps 749 mmHg 90%
03:00 +10°C° 0 mm 2 mps 749 mmHg 92%
04:00 +10°C° 0 mm 3 mps 748 mmHg 94%
05:00 +10°C° 0 mm 3 mps 748 mmHg 96%
06:00 +12°C° 0 mm 3 mps 748 mmHg 90%
07:00 +13°C° 0 mm 3 mps 748 mmHg 85%
08:00 +14°C° 0 mm 4 mps 748 mmHg 80%
09:00 +15°C° 0 mm 4 mps 748 mmHg 72%
10:00 +18°C° 0 mm 4 mps 748 mmHg 64%
11:00 +19°C° 0 mm 4 mps 747 mmHg 56%
12:00 +19°C° 0 mm 4 mps 747 mmHg 52%
13:00 +20°C° 0 mm 3 mps 746 mmHg 47%
14:00 +20°C° 0 mm 3 mps 746 mmHg 43%
15:00 +20°C° 0 mm 3 mps 745 mmHg 47%
16:00 +20°C° 0 mm 3 mps 745 mmHg 52%
17:00 +19°C° 0 mm 3 mps 744 mmHg 57%
18:00 +18°C° 0.1 mm 3 mps 744 mmHg 66%
19:00 +16°C° 0.1 mm 3 mps 744 mmHg 76%
20:00 +13°C° 0.1 mm 3 mps 744 mmHg 86%
21:00 +13°C° 0 mm 3 mps 744 mmHg 88%
22:00 +12°C° 0 mm 3 mps 743 mmHg 90%
23:00 +11°C° 0 mm 3 mps 743 mmHg 92%
Show more

We Need Your Consent

Meteoprog and our Service Providers may store and access personal data such as cookies, device identifiers or other similar technologies on your device and process such data to personalise content and ads, as well as provide social media features and to analyse the traffic.

  • Store and/or access information on your device

    Cookies, device identifiers or other information can be stored or accessed on your device for the purposes indicated above.

  • Personalised ads and content, ad and content measurement, audience insights, and products development

    Ads and content can be personalised based on a profile. More data can be added to better personalise ads and content. Ad and content performance can be measured. Insights about the audience who saw the ads and content can be derived. Such data can be used to develop or improve user’s experience, systems and software.

By clicking ‘I Agree’ you will allow the use of indicated cookies, device identifiers, web beacons or other similar technologies. Your settings can be changed in the browser on your device.

For certain purposes, legitimate interests may be relied on, rather than consent. You can read more about this in our Privacy and Cookie Policy.